Location: Arpaise
(41.0333°N, 14.7333°E)
Time: 08:00:33
(UTC+00:00)

Cosmos 1703 - Pass Details

Date: 05 July 2020
Orbit: 525 x 539 km, 82.5° (Epoch: 05 August)

Event Time Altitude Azimuth Distance (km) Brightness Sun altitude
Exits shadow 20:15:37 10° 197° (SSW) 1,748 5.6 -15.0°
Maximum altitude 20:19:25 63° 279° (W) 592 3.6 -15.5°
Drops below altitude 10° 20:23:16 10° 1° (N) 1,775 6.6 -16.0°
Sets 20:25:27 0° 5° (N) 2,669 7.6 -16.2°
